Home > Weather > Cairo > Past weeks

Flag for Egypt Weather for the Past 2 Weeks in Cairo, Egypt

Now
55 °F

Clear.


Feels Like: 55 °F
Forecast: 51 / 78 °F
Wind: No wind

Location: Cairo Airport

Current Time: Feb 12, 2016 at 4:16:51 AM

Latest Report: Feb 12, 2016 at 3:30 AM


Visibility: 10 mi

Pressure: 30.18 "Hg

Humidity: 63%

Dew point: 43 °F

Location of CairoLocation

Historic Weather in Cairo — Graph

°F

Cairo Temperature Yesterday

Maximum temperature yesterday: 68 °F (at 1:30 PM)
Minimum temperature yesterday: 52 °F (at 4:00 AM)
Average temperature yesterday: 61 °F

High & Low Weather Summary for the Past Weeks

 TemperatureHumidityPressure
High77 °F (Feb 4, 2:00 PM)100% (Jan 28, 6:00 AM)30.45 "Hg (Jan 28, 6:00 AM)
Low41 °F (Jan 28, 5:30 AM)22% (Feb 4, 3:00 PM)29.95 "Hg (Feb 5, 3:00 AM)
Average57 °F61%30.23 "Hg
* Reported Jan 28 3:00 AM — Feb 12 3:00 AM, Cairo, Weather by CustomWeather, © 2016

Note: Actual official high and low records may vary slightly from our data, if they occured in-between our weather recording intervals... More about our weather records

Advertising

Cairo Weather History for the Previous 24 Hours

 ConditionsComfort  
Time TempWeatherWind HumidityBarometerVisibility
3:00 AM
Fri, Feb 12
55 °FClear.No wind67%30.18 "Hg10 mi
2:30 AM55 °FClear.No wind67%30.21 "Hg10 mi
2:00 AM57 °FClear.7 mph63%30.21 "Hg10 mi
1:30 AM57 °FClear.8 mph63%30.21 "Hg10 mi
1:00 AM59 °FClear.7 mph59%30.21 "Hg10 mi
12:00 AM59 °FClear.7 mph63%30.21 "Hg10 mi
11:30 PM
Thu, Feb 11
61 °FClear.8 mph59%30.21 "Hg10 mi
11:00 PM61 °FClear.3 mph59%30.24 "Hg10 mi
10:30 PM61 °FClear.7 mph59%30.24 "Hg10 mi
10:00 PM63 °FClear.8 mph49%30.24 "Hg10 mi
9:30 PM63 °FClear.7 mph52%30.24 "Hg10 mi
9:00 PM63 °FClear.6 mph52%30.24 "Hg10 mi
8:30 PM63 °FClear.7 mph52%30.24 "Hg10 mi
8:00 PM63 °FClear.5 mph52%30.24 "Hg10 mi
7:30 PM64 °FClear.6 mph49%30.24 "Hg10 mi
7:00 PM64 °FClear.6 mph52%30.24 "Hg10 mi
6:30 PM66 °FClear.3 mph49%30.21 "Hg10 mi
6:00 PM66 °FClear.5 mph46%30.21 "Hg10 mi
5:00 PM68 °FSunny.3 mph40%30.21 "Hg10 mi
4:00 PM68 °FSunny.3 mph40%30.21 "Hg10 mi
3:30 PM68 °FSunny.No wind40%30.21 "Hg10 mi
3:00 PM68 °FSunny.6 mph40%30.21 "Hg10 mi
2:30 PM68 °FSunny.5 mph43%30.21 "Hg10 mi
2:00 PM68 °FSunny.5 mph40%30.21 "Hg10 mi
1:30 PM68 °FClear.6 mph40%30.21 "Hg4 mi
1:00 PM66 °FClear.2 mph46%30.24 "Hg4 mi
12:30 PM66 °FClear.6 mph46%30.24 "Hg4 mi
12:00 PM66 °FClear.5 mph46%30.24 "Hg4 mi
11:30 AM64 °FClear.6 mph56%30.27 "Hg4 mi
11:00 AM64 °FClear.6 mph52%30.27 "Hg4 mi
10:30 AM64 °FClear.2 mph52%30.27 "Hg4 mi
10:00 AM63 °FClear.2 mph56%30.27 "Hg4 mi
9:30 AM61 °FHaze.2 mph63%30.27 "Hg2 mi
9:00 AM59 °FHaze.5 mph68%30.27 "Hg2 mi
8:30 AM55 °FFog.No wind72%30.27 "Hg1 mi
8:00 AM55 °FFog.No wind72%30.27 "Hg1 mi
7:30 AM52 °FFog.No wind82%30.24 "Hg1 mi
7:00 AM52 °FFog.No wind82%30.24 "Hg1 mi
6:30 AM52 °FHaze.No wind77%30.24 "Hg1 mi
6:00 AM52 °FHaze.No wind77%30.24 "Hg2 mi
5:30 AM52 °FHaze.No wind77%30.21 "Hg2 mi
4:30 AM52 °FClear.No wind77%30.21 "Hg4 mi
4:00 AM52 °FClear.No wind77%30.21 "Hg4 mi
Weather by CustomWeather, © 2016

See weather overviewHow to use our weather pages